ヨン彗星

172P/Yeung (2002)

English version
Home page
Updated on November 12, 2005

---------------------------------------------------------------------

・ プロフィール

符号 172P/2002 BV
発見日 2002年1月21日
発見光度 20.4等
発見者 William Kwong Yeung (Benson, AZ)

・ 軌道要素

Epoch 2002 Mar. 27.0 TT = JDT 2452360.5
T 2002 Mar. 11.05812 TT                                 MPC
q   2.2444617            (2000.0)            P               Q
n   0.14966855     Peri.  178.77060     -0.77783576     +0.61514997
a   3.5133036      Node    40.14116     -0.57829806     -0.62040339
e   0.3611535      Incl.   11.51510     -0.24605463     -0.48650811
P   6.59

・ 星図

・ 光度変化

        H = 14.0  G = 0.15

---------------------------------------------------------------------

軌道要素は Dr. Brian G. Marsden の計算によるもので、 M.P.E.C. 2002-J34 に掲載されたものです。
星図は StellaNavigator Ver.2.0 for Windows (アストロアーツ 編著 / アスキー出版局刊) で作成したものです。
光度グラフはComet for Windowsで作成したものです。

---------------------------------------------------------------------

Copyright(C) Seiichi Yoshida (comet@aerith.net). All rights reserved.